When you browse on this site, cookies collect data to enhance your experience and personalize the content and advertising you see.
Visit our Privacy Policy to learn more. By continuing to use the site, you agree to this use of cookies and data.
  • In Austria
  • List of Countries
  • For 7 days
  • Water Temperature
  • Satellite Maps
  • Weather Map
  • News
  • Weather Widgets
  • user-avatar
    Login

    Hourly Weather Salzburg

    Today, 20 July, Saturday

    Time Temperature Precipitation Wind Pressure Humidity
    00:00 +10°C° 0 mm 1 mps 628 mmHg 89%
    01:00 +10°C° 0 mm 1 mps 628 mmHg 89%
    02:00 +10°C° 0 mm 1 mps 628 mmHg 89%
    03:00 +10°C° 0 mm 1 mps 628 mmHg 89%
    04:00 +9°C° 0 mm 1 mps 628 mmHg 88%
    05:00 +11°C° 0 mm 1 mps 629 mmHg 86%
    06:00 +12°C° 0 mm 1 mps 629 mmHg 84%
    07:00 +14°C° 0 mm 1 mps 630 mmHg 81%
    08:00 +18°C° 0 mm 1 mps 631 mmHg 69%
    09:00 +21°C° 0 mm 1 mps 632 mmHg 57%
    10:00 +22°C° 0 mm 0 mps 633 mmHg 44%
    11:00 +25°C° 0 mm 1 mps 633 mmHg 41%
    12:00 +26°C° 0 mm 1 mps 633 mmHg 37%
    13:00 +26°C° 0 mm 1 mps 633 mmHg 34%
    14:00 +25°C° 0.2 mm 1 mps 633 mmHg 43%
    15:00 +23°C° 0.2 mm 1 mps 632 mmHg 53%
    16:00 +21°C° 0.2 mm 1 mps 631 mmHg 62%
    17:00 +20°C° 0.5 mm 1 mps 631 mmHg 70%
    18:00 +19°C° 0.5 mm 1 mps 631 mmHg 78%
    19:00 +15°C° 0.5 mm 0 mps 631 mmHg 85%
    20:00 +14°C° 0.4 mm 0 mps 631 mmHg 86%
    21:00 +14°C° 0.4 mm 1 mps 630 mmHg 87%
    22:00 +13°C° 0.4 mm 1 mps 630 mmHg 88%
    23:00 +12°C° 0.3 mm 1 mps 630 mmHg 89%

    Tomorrow, 21 July, Sunday

    Time Temperature Precipitation Wind Pressure Humidity
    00:00 +12°C° 0.3 mm 1 mps 630 mmHg 89%
    01:00 +12°C° 0.3 mm 1 mps 630 mmHg 90%
    02:00 +12°C° 0 mm 1 mps 630 mmHg 89%
    03:00 +12°C° 0 mm 1 mps 630 mmHg 89%
    04:00 +11°C° 0 mm 1 mps 630 mmHg 88%
    05:00 +13°C° 0 mm 1 mps 631 mmHg 86%
    06:00 +14°C° 0 mm 1 mps 631 mmHg 85%
    07:00 +14°C° 0 mm 0 mps 632 mmHg 83%
    08:00 +16°C° 0.7 mm 1 mps 632 mmHg 85%
    09:00 +16°C° 0.7 mm 1 mps 633 mmHg 86%
    10:00 +17°C° 0.7 mm 2 mps 633 mmHg 88%
    11:00 +18°C° 0.8 mm 1 mps 633 mmHg 87%
    12:00 +18°C° 0.8 mm 1 mps 633 mmHg 86%
    13:00 +18°C° 0.8 mm 1 mps 633 mmHg 85%
    14:00 +18°C° 0.8 mm 1 mps 634 mmHg 86%
    15:00 +18°C° 0.8 mm 1 mps 634 mmHg 86%
    16:00 +18°C° 0.8 mm 1 mps 634 mmHg 87%
    17:00 +18°C° 0.6 mm 1 mps 634 mmHg 89%
    18:00 +16°C° 0.6 mm 1 mps 633 mmHg 91%
    19:00 +14°C° 0.6 mm 0 mps 633 mmHg 93%
    20:00 +13°C° 0.1 mm 0 mps 633 mmHg 94%
    21:00 +11°C° 0.1 mm 0 mps 633 mmHg 94%
    22:00 +10°C° 0.1 mm 0 mps 633 mmHg 94%
    23:00 +10°C° 0 mm 0 mps 633 mmHg 95%

    Day after tomorrow, 22 July, Monday

    Time Temperature Precipitation Wind Pressure Humidity
    00:00 +11°C° 0 mm 1 mps 633 mmHg 95%
    01:00 +10°C° 0 mm 1 mps 633 mmHg 95%
    02:00 +9°C° 0 mm 0 mps 633 mmHg 95%
    03:00 +10°C° 0 mm 0 mps 633 mmHg 95%
    04:00 +10°C° 0 mm 0 mps 633 mmHg 95%
    05:00 +11°C° 0 mm 0 mps 633 mmHg 94%
    06:00 +12°C° 0 mm 0 mps 634 mmHg 93%
    07:00 +13°C° 0 mm 0 mps 634 mmHg 93%
    08:00 +14°C° 0.1 mm 0 mps 635 mmHg 84%
    09:00 +18°C° 0.1 mm 1 mps 636 mmHg 76%
    10:00 +20°C° 0.1 mm 1 mps 636 mmHg 68%
    11:00 +21°C° 0.1 mm 1 mps 636 mmHg 63%
    12:00 +21°C° 0.1 mm 2 mps 636 mmHg 58%
    13:00 +23°C° 0.1 mm 2 mps 636 mmHg 53%
    14:00 +21°C° 0 mm 2 mps 636 mmHg 55%
    15:00 +21°C° 0 mm 2 mps 636 mmHg 57%
    16:00 +21°C° 0 mm 2 mps 636 mmHg 58%
    17:00 +19°C° 0 mm 2 mps 635 mmHg 67%
    18:00 +19°C° 0 mm 1 mps 635 mmHg 77%
    19:00 +16°C° 0 mm 1 mps 634 mmHg 86%
    20:00 +15°C° 0 mm 1 mps 634 mmHg 88%
    21:00 +13°C° 0 mm 1 mps 634 mmHg 91%
    22:00 +11°C° 0 mm 0 mps 633 mmHg 93%
    23:00 +11°C° 0 mm 0 mps 633 mmHg 93%

    23 July, Tuesday

    Time Temperature Precipitation Wind Pressure Humidity
    00:00 +10°C° 0 mm 0 mps 633 mmHg 93%
    01:00 +11°C° 0 mm 1 mps 633 mmHg 93%
    02:00 +11°C° 0 mm 1 mps 633 mmHg 94%
    03:00 +11°C° 0 mm 1 mps 632 mmHg 94%
    04:00 +9°C° 0 mm 0 mps 632 mmHg 94%
    05:00 +11°C° 0 mm 0 mps 633 mmHg 90%
    06:00 +12°C° 0 mm 0 mps 633 mmHg 87%
    07:00 +14°C° 0 mm 0 mps 634 mmHg 84%
    08:00 +16°C° 0 mm 0 mps 634 mmHg 71%
    09:00 +20°C° 0 mm 1 mps 635 mmHg 58%
    10:00 +22°C° 0 mm 1 mps 636 mmHg 46%
    11:00 +23°C° 0 mm 1 mps 636 mmHg 43%
    12:00 +24°C° 0 mm 1 mps 636 mmHg 41%
    13:00 +24°C° 0 mm 2 mps 635 mmHg 38%
    14:00 +24°C° 0 mm 2 mps 635 mmHg 41%
    15:00 +24°C° 0 mm 2 mps 635 mmHg 44%
    16:00 +23°C° 0 mm 2 mps 635 mmHg 47%
    17:00 +22°C° 0 mm 1 mps 634 mmHg 58%
    18:00 +20°C° 0 mm 1 mps 633 mmHg 69%
    19:00 +18°C° 0 mm 1 mps 633 mmHg 79%
    20:00 +16°C° 0 mm 1 mps 633 mmHg 82%
    21:00 +15°C° 0 mm 1 mps 632 mmHg 85%
    22:00 +13°C° 0 mm 1 mps 632 mmHg 88%
    23:00 +13°C° 0 mm 1 mps 632 mmHg 88%

    24 July, Wednesday

    Time Temperature Precipitation Wind Pressure Humidity
    00:00 +13°C° 0 mm 1 mps 632 mmHg 88%
    01:00 +13°C° 0 mm 1 mps 632 mmHg 88%
    02:00 +12°C° 0 mm 1 mps 631 mmHg 88%
    03:00 +12°C° 0 mm 1 mps 631 mmHg 88%
    04:00 +12°C° 0 mm 1 mps 631 mmHg 88%
    05:00 +14°C° 0 mm 1 mps 632 mmHg 83%
    06:00 +15°C° 0 mm 0 mps 632 mmHg 78%
    07:00 +16°C° 0 mm 0 mps 633 mmHg 72%
    08:00 +19°C° 0 mm 0 mps 634 mmHg 64%
    09:00 +21°C° 0 mm 0 mps 634 mmHg 55%
    10:00 +25°C° 0 mm 1 mps 635 mmHg 47%
    11:00 +26°C° 0 mm 1 mps 635 mmHg 44%
    12:00 +27°C° 0 mm 1 mps 635 mmHg 42%
    13:00 +28°C° 0 mm 1 mps 635 mmHg 39%
    14:00 +27°C° 0 mm 2 mps 635 mmHg 44%
    15:00 +26°C° 0 mm 2 mps 634 mmHg 48%
    16:00 +26°C° 0 mm 2 mps 634 mmHg 53%
    17:00 +24°C° 0.4 mm 1 mps 633 mmHg 64%
    18:00 +22°C° 0.4 mm 1 mps 633 mmHg 76%
    19:00 +18°C° 0.4 mm 0 mps 632 mmHg 88%
    20:00 +19°C° 0.1 mm 1 mps 632 mmHg 88%
    21:00 +16°C° 0.1 mm 1 mps 632 mmHg 89%
    22:00 +15°C° 0.1 mm 1 mps 632 mmHg 90%
    23:00 +15°C° 0 mm 1 mps 632 mmHg 90%

    25 July, Thursday

    Time Temperature Precipitation Wind Pressure Humidity
    00:00 +15°C° 0 mm 1 mps 632 mmHg 90%
    01:00 +15°C° 0 mm 1 mps 632 mmHg 90%
    02:00 +14°C° 0 mm 1 mps 631 mmHg 90%
    03:00 +14°C° 0 mm 1 mps 631 mmHg 90%
    04:00 +14°C° 0 mm 1 mps 631 mmHg 90%
    05:00 +15°C° 0 mm 1 mps 632 mmHg 88%
    06:00 +18°C° 0 mm 1 mps 632 mmHg 86%
    07:00 +17°C° 0 mm 0 mps 633 mmHg 83%
    08:00 +19°C° 0 mm 0 mps 634 mmHg 72%
    09:00 +24°C° 0 mm 1 mps 634 mmHg 61%
    10:00 +26°C° 0 mm 1 mps 635 mmHg 50%
    11:00 +27°C° 0 mm 1 mps 635 mmHg 46%
    12:00 +28°C° 0 mm 1 mps 635 mmHg 42%
    13:00 +29°C° 0 mm 1 mps 635 mmHg 38%
    14:00 +28°C° 0.2 mm 1 mps 635 mmHg 44%
    15:00 +27°C° 0.2 mm 2 mps 634 mmHg 50%
    16:00 +26°C° 0.2 mm 2 mps 634 mmHg 56%
    17:00 +25°C° 0.4 mm 2 mps 633 mmHg 65%
    18:00 +23°C° 0.4 mm 1 mps 633 mmHg 75%
    19:00 +21°C° 0.4 mm 1 mps 632 mmHg 85%
    20:00 +20°C° 0 mm 1 mps 632 mmHg 86%
    21:00 +19°C° 0 mm 1 mps 632 mmHg 87%
    22:00 +16°C° 0 mm 1 mps 632 mmHg 88%
    23:00 +16°C° 0 mm 1 mps 632 mmHg 88%
    Show more